Location: Seattle
(47.6064°N, 122.3308°W)
Time: 01:23:25
(UTC-08:00)

Envisat - Pass Details

Date: 03 November 2020
Orbit: 764 x 766 km, 98.1° (Epoch: 03 December)

Event Time Altitude Azimuth Distance (km) Brightness Sun altitude
Rises 04:40:22 0° 31° (NNE) 3,242 6.7 -23.4°
Reaches altitude 10° 04:44:04 10° 59° (ENE) 2,309 6.3 -22.8°
Maximum altitude 04:46:22 13° 86° (E) 2,101 6.3 -22.4°
Drops below altitude 10° 04:48:40 10° 114° (ESE) 2,300 6.4 -22.0°
Sets 04:52:19 0° 141° (SE) 3,219 6.8 -21.4°
